Regional Weather Roundup
Issued by NWS

Home | Current Version | Previous Version | Graphics & Text | Print | Product List | Glossary Off
Versions: 1 2 3 4 5 6 7 8 9 10 11 12 13 14 15 16 17 18 19 20 21 22 23 24 25 26 27 28 29 30 31 32 33 34 35 36 37 38 39 40 41 42 43 44 45 46 47 48 49 50

878
ASUS43 KTOP 300908
RWRKS

WEATHER ROUNDUP FOR KANSAS
NATIONAL WEATHER SERVICE GOODLAND KS
400 AM CDT FRI SEP 30 2016

NOTE:  "FAIR" INDICATES FEW OR NO CLOUDS BELOW 12,000 FEET WITH NO
SIGNIFICANT WEATHER AND/OR OBSTRUCTIONS TO VISIBILITY.

KSZ001>006-013>018-027>032-041>047-301000-
NORTHWEST KANSAS

CITY           SKY/WX    TMP DP  RH WIND       PRES   REMARKS
GOODLAND       CLOUDY    47  39  74 S14       30.24F
HAYS           CLEAR     43  34  70 CALM      30.30S
HILL CITY      CLEAR     43  40  89 CALM      30.30F
RUSSELL        CLEAR     48  45  89 S6        30.28F
$$

KSZ061>065-074>080-084>089-301000-
SOUTHWEST KANSAS

CITY           SKY/WX    TMP DP  RH WIND       PRES   REMARKS
DODGE CITY     CLEAR     49  45  86 S7        30.30F
ELKHART          N/A     49  39  68 SE12        N/A
GARDEN CITY    CLEAR     49  43  80 SE10      30.27F
GREAT BEND     CLEAR     45  36  70 CALM      30.29F
LIBERAL        CLEAR     48  39  71 SE7       30.29S
PRATT          CLEAR     47  44  87 CALM      30.29S
$$

KSZ066>073-081>083-090>101-301000-
SOUTHEAST KANSAS

CITY           SKY/WX    TMP DP  RH WIND       PRES   REMARKS
CHANUTE        CLEAR     51  48  89 NW6       30.24F
COFFEYVILLE    CLEAR     51  49  92 NW5       30.24F
HUTCHINSON     CLEAR     48  46  93 CALM      30.28F
MEDICINE LODGE   N/A     47  45  93 W3        30.28F
NEWTON         CLEAR     51  48  89 N3        30.28F
PARSONS        CLEAR     46  45  96 CALM      30.25F
WICHITA INTL   PTCLDY    50  48  93 NW3       30.27F
WICHITA JABRA  CLEAR     49  48  97 N5        30.27F
WICHITA MCCONL CLEAR     51  48  89 N3        30.27F
WINFIELD       CLEAR     48  47  96 N3        30.27F
$$

KSZ007>012-019>026-033>040-048>060-102>105-301000-
NORTHEAST KANSAS

CITY           SKY/WX    TMP DP  RH WIND       PRES   REMARKS
CONCORDIA      CLEAR     49  48  97 CALM      30.30F
EMPORIA        CLEAR     49  47  93 W6        30.26F
LAWRENCE       CLEAR     49  49 100 W3        30.25F
MANHATTAN      CLEAR     46  44  93 CALM      30.28F
MARYSVILLE     CLEAR     43  43 100 N3        30.29F
OLATHE IND     CLEAR     50  48  93 NW5       30.25F
OLATHE EXE     CLEAR     53  48  83 N7        30.24F
SALINA         CLEAR     50  46  86 CALM      30.29F
TOPEKA BILLARD CLEAR     50  47  89 CALM      30.26F
TOPEKA FORBES  CLEAR     51  48  89 NW8       30.26F
$$




USA.gov is the U.S. government's official web portal to all federal, state and local government web resources and services.